Weather in Kamenskoe

Russia / Kamchatka Krai     62°28′02″N   166°12′28″E
temp.,
°C
wind,
m/s
gust,
m/s
humid.,
%
clouds,
%
prec.,
mm/h
press.,
hPa
HPBL,
m
28 february, sun
sun2800:00−33ne23930 0.0 102922
03:00−34ne22950 0.0 102919
06:00−35ene22960 0.0 102919
09:00−34ene23940 0.0 103023
12:00−31ne35920 0.0 1029183
15:00−29ne46909 0.0 1027276
18:00−32ne34914 0.0 102655
21:00−31ne47906 0.0 1024123
1 march, mon
mon100:00−30ne6118736 0.0 1021270
03:00−28ne81682100 0.0 1016513
06:00−27nne92181100 0.0 1012639
09:00−26nne122379100 0.0 1009699
12:00−25nne142483100 0.0 1007684
15:00−24nne132485100 0.0 1004775
18:00−24nne122385100 0.0 1004777
21:00−23nne122284100 0.0 1006746
2 march, tue
tue200:00−22nne102083100 0.0 1007689
03:00−21nne92076100 0.0 1009714
06:00−23nne61879100 0.0 1010634
09:00−23nne61575100 0.0 1013420
12:00−21nne7167494 0.0 1014519
15:00−20ne488068 0.0 1016268
18:00−24ne228181 0.0 101820
21:00−27ene117944 0.0 102120
3 march, wed
wed300:00−28nne007938 0.0 102319
03:00−29ese118164 0.0 102519
06:00−28ene118281 0.0 102719
09:00−29ene118394 0.0 102919
12:00−26ene228467 0.0 102984
15:00−26ne348867 0.0 1028182
18:00−28ne459083 0.0 102598
21:00−26ne5888100 0.0 1022285
4 march, thu
thu400:00−26ne81298100 0.7 1016330
03:00−26ne101899100 4.0 1007394
06:00−25ne111998100 6.9 997386
09:00−23ne122198100 3.1 988385
12:00−13nne111695100 7.6 980322
15:000se142299100 4.1 9741369
18:00−14wsw101887100 6.8 974743
21:00−17sw10168889 0.2 980917